Check out our new BloomSky Weather System.

Active alerts

Houston, TX
  Details for Houston, TX Dense Fog Advisory


Thunder radar  blitzortung!


Rain radar more information rain snow radar


Visit our other weather sites:

Template documentation
and downloads

And another site



Weather Underground History page Text

Daily Summary for March 11, 2017 Units:  English    Metric   Both
« Previous Day
Next Day »
Daily Weekly Monthly Yearly Custom
  High: Low: Average:
Temperature: 69.6 °F 63.3 °F 66.8 °F
Dew Point: 68.7 °F 62.2 °F 66.1 °F
Humidity: 99 % 93 % 98 %
Wind Speed: 7.0 mph 0.0 mph 1 mph
Wind Gust: 18.0 mph - -
Wind:- - SE
Pressure: 30.12 in 30.00 in -
Precipitation: 1.06 in    
Historical Graphs
 
 
Tabular Data for March 11, 2017
Time Temperature Dew Point Pressure Wind Wind Speed Wind Gust Humidity Rainfall Rate (Hourly)
00:01 67.1 °F 66.2 °F 30.12 in Calm   2.0 mph 97 % 0.00 in
00:06 67.1 °F 66.2 °F 30.11 in Calm   2.0 mph 97 % 0.00 in
00:11 66.9 °F 66.0 °F 30.11 in SSW 1.0 mph 2.0 mph 97 % 0.00 in
00:16 66.7 °F 65.8 °F 30.11 in Calm   1.0 mph 97 % 0.00 in
00:21 66.7 °F 65.8 °F 30.11 in Calm   1.0 mph 97 % 0.00 in
00:26 66.7 °F 66.2 °F 30.11 in Calm   1.0 mph 98 % 0.00 in
00:31 66.9 °F 66.4 °F 30.11 in Calm   1.0 mph 98 % 0.00 in
00:36 66.7 °F 65.8 °F 30.11 in Calm   1.0 mph 97 % 0.00 in
00:41 66.6 °F 65.7 °F 30.11 in Calm   1.0 mph 97 % 0.00 in
00:46 66.7 °F 66.2 °F 30.11 in Calm     98 % 0.00 in
00:51 66.7 °F 66.2 °F 30.11 in Calm   1.0 mph 98 % 0.00 in
00:56 66.7 °F 65.8 °F 30.11 in Calm   1.0 mph 97 % 0.00 in
01:01 66.7 °F 66.2 °F 30.10 in South 1.0 mph 1.0 mph 98 % 0.00 in
01:07 66.7 °F 66.2 °F 30.10 in South 1.0 mph 1.0 mph 98 % 0.00 in
01:12 66.7 °F 66.2 °F 30.09 in Calm   1.0 mph 98 % 0.00 in
01:17 66.7 °F 66.2 °F 30.09 in Calm   1.0 mph 98 % 0.00 in
01:22 66.7 °F 66.2 °F 30.09 in South 1.0 mph 1.0 mph 98 % 0.00 in
01:27 66.9 °F 66.4 °F 30.08 in Calm   2.0 mph 98 % 0.00 in
01:32 66.9 °F 66.4 °F 30.08 in Calm   2.0 mph 98 % 0.00 in
01:37 66.9 °F 66.4 °F 30.08 in Calm   2.0 mph 98 % 0.00 in
01:42 66.7 °F 66.2 °F 30.08 in Calm   1.0 mph 98 % 0.00 in
01:47 66.6 °F 66.0 °F 30.08 in Calm   1.0 mph 98 % 0.00 in
01:52 66.4 °F 65.8 °F 30.09 in Calm   1.0 mph 98 % 0.00 in
01:57 66.4 °F 65.8 °F 30.09 in Calm   1.0 mph 98 % 0.00 in
02:02 66.4 °F 65.8 °F 30.09 in Calm   1.0 mph 98 % 0.00 in
02:07 66.4 °F 65.8 °F 30.09 in Calm     98 % 0.00 in
02:12 66.4 °F 65.8 °F 30.09 in Calm     98 % 0.00 in
02:17 66.2 °F 65.7 °F 30.09 in Calm   1.0 mph 98 % 0.00 in
02:22 66.2 °F 65.7 °F 30.09 in Calm   1.0 mph 98 % 0.00 in
02:27 66.2 °F 65.7 °F 30.09 in Calm   1.0 mph 98 % 0.00 in
02:32 66.0 °F 65.5 °F 30.08 in Calm   1.0 mph 98 % 0.00 in
02:37 66.0 °F 65.5 °F 30.08 in Calm   1.0 mph 98 % 0.00 in
02:42 66.2 °F 65.7 °F 30.09 in Calm     98 % 0.00 in
02:47 66.2 °F 65.7 °F 30.08 in Calm     98 % 0.00 in
02:52 66.2 °F 65.7 °F 30.08 in Calm     98 % 0.00 in
02:57 66.0 °F 65.5 °F 30.08 in Calm     98 % 0.00 in
03:02 66.0 °F 65.5 °F 30.08 in Calm     98 % 0.00 in
03:07 66.0 °F 65.5 °F 30.08 in Calm     98 % 0.00 in
03:12 66.2 °F 65.7 °F 30.08 in Calm     98 % 0.00 in
03:17 66.4 °F 65.8 °F 30.07 in Calm   1.0 mph 98 % 0.00 in
03:22 66.4 °F 65.8 °F 30.07 in Calm   1.0 mph 98 % 0.00 in
03:27 66.4 °F 65.8 °F 30.07 in Calm   1.0 mph 98 % 0.00 in
03:32 66.4 °F 65.8 °F 30.07 in Calm   1.0 mph 98 % 0.00 in
03:37 66.4 °F 65.8 °F 30.06 in Calm   1.0 mph 98 % 0.00 in
03:42 66.4 °F 65.8 °F 30.07 in Calm   1.0 mph 98 % 0.00 in
03:47 66.4 °F 66.0 °F 30.07 in SW 1.0 mph 1.0 mph 99 % 0.00 in
03:52 66.6 °F 66.2 °F 30.08 in North 1.0 mph 3.0 mph 99 % 0.00 in
03:57 66.6 °F 66.2 °F 30.08 in Calm   3.0 mph 99 % 0.00 in
04:02 66.7 °F 66.4 °F 30.08 in Calm   3.0 mph 99 % 0.00 in
04:07 66.7 °F 66.4 °F 30.08 in SSE 1.0 mph 3.0 mph 99 % 0.00 in
04:12 66.9 °F 66.6 °F 30.08 in SSE 1.0 mph 1.0 mph 99 % 0.00 in
04:17 66.9 °F 66.6 °F 30.08 in Calm   1.0 mph 99 % 0.00 in
04:22 66.9 °F 66.6 °F 30.07 in Calm   1.0 mph 99 % 0.00 in
04:27 66.7 °F 66.4 °F 30.07 in Calm   1.0 mph 99 % 0.00 in
04:33 66.7 °F 66.4 °F 30.07 in Calm   1.0 mph 99 % 0.00 in
04:38 66.7 °F 66.4 °F 30.07 in Calm     99 % 0.00 in
04:43 66.7 °F 66.4 °F 30.07 in Calm     99 % 0.00 in
04:48 66.6 °F 66.2 °F 30.07 in Calm     99 % 0.00 in
04:53 66.6 °F 66.2 °F 30.07 in Calm     99 % 0.00 in
04:58 66.6 °F 66.2 °F 30.07 in SSE 1.0 mph 1.0 mph 99 % 0.00 in
05:03 66.6 °F 66.2 °F 30.08 in NNW 1.0 mph 2.0 mph 99 % 0.00 in
05:08 66.6 °F 66.2 °F 30.08 in Calm   2.0 mph 99 % 0.00 in
05:13 66.6 °F 66.2 °F 30.08 in Calm   3.0 mph 99 % 0.00 in
05:18 66.6 °F 66.2 °F 30.07 in NNW 1.0 mph 3.0 mph 99 % 0.00 in
05:23 66.6 °F 66.2 °F 30.08 in Calm   3.0 mph 99 % 0.01 in
05:28 66.7 °F 66.4 °F 30.08 in ENE 1.0 mph 2.0 mph 99 % 0.01 in
05:33 66.9 °F 66.6 °F 30.08 in NNW 1.0 mph 4.0 mph 99 % 0.01 in
05:38 66.9 °F 66.6 °F 30.08 in NNW 1.0 mph 4.0 mph 99 % 0.01 in
05:43 66.9 °F 66.6 °F 30.08 in Calm   4.0 mph 99 % 0.01 in
05:48 66.9 °F 66.6 °F 30.08 in NW 1.0 mph 4.0 mph 99 % 0.01 in
05:49 66.9 °F 66.6 °F 30.08 in Calm   4.0 mph 99 % 0.01 in
05:54 67.1 °F 66.7 °F 30.08 in Calm   4.0 mph 99 % 0.01 in
05:59 67.1 °F 66.7 °F 30.08 in NNW 2.0 mph 4.0 mph 99 % 0.01 in
06:04 67.1 °F 66.7 °F 30.09 in NNE 2.0 mph 4.0 mph 99 % 0.01 in
06:09 67.1 °F 66.7 °F 30.09 in East 1.0 mph 4.0 mph 99 % 0.01 in
06:14 67.1 °F 66.7 °F 30.09 in Calm   4.0 mph 99 % 0.01 in
06:19 67.1 °F 66.7 °F 30.09 in Calm   2.0 mph 99 % 0.01 in
06:24 67.1 °F 66.7 °F 30.09 in Calm   2.0 mph 99 % 0.00 in
06:29 67.1 °F 66.7 °F 30.09 in Calm   2.0 mph 99 % 0.00 in
06:34 67.1 °F 66.7 °F 30.09 in East 1.0 mph 2.0 mph 99 % 0.00 in
06:39 67.1 °F 66.7 °F 30.09 in Calm   2.0 mph 99 % 0.00 in
06:44 67.1 °F 66.7 °F 30.09 in Calm   2.0 mph 99 % 0.00 in
06:49 67.1 °F 66.7 °F 30.09 in Calm   2.0 mph 99 % 0.00 in
06:54 67.1 °F 66.7 °F 30.09 in Calm   1.0 mph 99 % 0.01 in
06:59 67.1 °F 66.7 °F 30.09 in Calm   1.0 mph 99 % 0.01 in
07:04 66.9 °F 66.6 °F 30.10 in Calm   1.0 mph 99 % 0.01 in
07:09 67.1 °F 66.7 °F 30.10 in SE 1.0 mph 1.0 mph 99 % 0.01 in
07:14 67.3 °F 66.9 °F 30.11 in SSE 1.0 mph 2.0 mph 99 % 0.01 in
07:19 67.3 °F 66.9 °F 30.10 in SE 1.0 mph 2.0 mph 99 % 0.01 in
07:24 67.3 °F 66.9 °F 30.11 in Calm   2.0 mph 99 % 0.01 in
07:29 67.3 °F 66.9 °F 30.10 in Calm   2.0 mph 99 % 0.01 in
07:34 67.3 °F 66.9 °F 30.11 in Calm   2.0 mph 99 % 0.01 in
07:39 67.3 °F 66.9 °F 30.11 in Calm   2.0 mph 99 % 0.02 in
07:44 67.5 °F 67.1 °F 30.10 in Calm   2.0 mph 99 % 0.02 in
07:49 67.5 °F 67.1 °F 30.10 in ENE 1.0 mph 1.0 mph 99 % 0.02 in
07:54 67.6 °F 67.3 °F 30.10 in North 1.0 mph 1.0 mph 99 % 0.01 in
07:59 67.6 °F 67.3 °F 30.09 in NW 2.0 mph 3.0 mph 99 % 0.02 in
08:04 67.6 °F 67.3 °F 30.09 in Calm   3.0 mph 99 % 0.02 in
08:09 67.6 °F 67.3 °F 30.10 in Calm   3.0 mph 99 % 0.02 in
08:14 67.6 °F 67.3 °F 30.09 in NNE 3.0 mph 3.0 mph 99 % 0.02 in
08:19 67.6 °F 67.3 °F 30.10 in NNW 1.0 mph 4.0 mph 99 % 0.02 in
08:24 67.6 °F 67.3 °F 30.10 in Calm   4.0 mph 99 % 0.02 in
08:29 67.8 °F 67.5 °F 30.10 in NE 1.0 mph 4.0 mph 99 % 0.02 in
08:34 67.6 °F 67.3 °F 30.10 in NNE 1.0 mph 4.0 mph 99 % 0.01 in
08:39 67.6 °F 67.3 °F 30.10 in ENE 1.0 mph 4.0 mph 99 % 0.01 in
08:44 67.6 °F 67.3 °F 30.10 in Calm   4.0 mph 99 % 0.01 in
08:49 67.6 °F 67.3 °F 30.10 in Calm   4.0 mph 99 % 0.01 in
08:54 67.6 °F 67.3 °F 30.10 in East 2.0 mph 4.0 mph 99 % 0.01 in
08:59 67.8 °F 67.5 °F 30.10 in NNE 2.0 mph 3.0 mph 99 % 0.00 in
09:04 67.8 °F 67.5 °F 30.10 in Calm   3.0 mph 99 % 0.01 in
09:09 67.8 °F 67.5 °F 30.10 in ENE 1.0 mph 3.0 mph 99 % 0.01 in
09:15 67.8 °F 67.5 °F 30.10 in NNE 1.0 mph 3.0 mph 99 % 0.01 in
09:20 67.8 °F 67.5 °F 30.10 in East 3.0 mph 5.0 mph 99 % 0.01 in
09:25 67.8 °F 67.5 °F 30.10 in Calm   5.0 mph 99 % 0.02 in
09:30 68.0 °F 67.6 °F 30.10 in ESE 1.0 mph 5.0 mph 99 % 0.02 in
09:35 68.2 °F 67.8 °F 30.10 in Calm   4.0 mph 99 % 0.02 in
09:40 68.2 °F 67.8 °F 30.10 in SE 1.0 mph 4.0 mph 99 % 0.02 in
09:45 68.2 °F 67.8 °F 30.10 in ENE 2.0 mph 3.0 mph 99 % 0.02 in
09:50 68.2 °F 67.8 °F 30.10 in Calm   4.0 mph 99 % 0.03 in
09:55 68.2 °F 67.8 °F 30.10 in East 5.0 mph 5.0 mph 99 % 0.03 in
10:00 68.2 °F 67.8 °F 30.10 in SE 1.0 mph 5.0 mph 99 % 0.02 in
10:05 68.2 °F 67.8 °F 30.10 in Calm   5.0 mph 99 % 0.02 in
10:10 68.2 °F 67.8 °F 30.10 in SE 1.0 mph 5.0 mph 99 % 0.02 in
10:15 68.2 °F 67.8 °F 30.10 in SE 1.0 mph 5.0 mph 99 % 0.03 in
10:20 68.4 °F 68.0 °F 30.10 in ESE 1.0 mph 5.0 mph 99 % 0.02 in
10:25 68.5 °F 68.2 °F 30.10 in ESE 1.0 mph 5.0 mph 99 % 0.02 in
10:30 68.5 °F 68.2 °F 30.10 in East 2.0 mph 4.0 mph 99 % 0.02 in
10:35 68.7 °F 68.4 °F 30.10 in ENE 1.0 mph 4.0 mph 99 % 0.03 in
10:40 68.7 °F 68.4 °F 30.09 in ENE 4.0 mph 6.0 mph 99 % 0.03 in
10:45 68.5 °F 68.2 °F 30.09 in East 3.0 mph 8.0 mph 99 % 0.03 in
10:50 68.5 °F 68.2 °F 30.09 in East 1.0 mph 8.0 mph 99 % 0.02 in
10:55 68.5 °F 68.2 °F 30.09 in SE 3.0 mph 8.0 mph 99 % 0.02 in
11:00 68.5 °F 68.2 °F 30.09 in Calm   7.0 mph 99 % 0.02 in
11:05 68.7 °F 68.4 °F 30.09 in SE 5.0 mph 7.0 mph 99 % 0.02 in
11:10 68.7 °F 68.2 °F 30.09 in ENE 5.0 mph 7.0 mph 98 % 0.01 in
11:15 68.7 °F 68.2 °F 30.09 in Calm   7.0 mph 98 % 0.01 in
11:20 68.9 °F 68.4 °F 30.09 in Calm   7.0 mph 98 % 0.01 in
11:25 69.1 °F 68.5 °F 30.09 in NNW 1.0 mph 7.0 mph 98 % 0.01 in
11:30 69.3 °F 68.7 °F 30.09 in East 5.0 mph 6.0 mph 98 % 0.01 in
11:35 69.3 °F 68.4 °F 30.09 in NNW 2.0 mph 6.0 mph 97 % 0.00 in
11:40 69.4 °F 68.5 °F 30.09 in East 1.0 mph 5.0 mph 97 % 0.00 in
11:45 69.3 °F 68.4 °F 30.08 in ESE 3.0 mph 6.0 mph 97 % 0.00 in
11:50 69.4 °F 68.5 °F 30.08 in ESE 2.0 mph 6.0 mph 97 % 0.00 in
11:55 69.6 °F 68.7 °F 30.08 in ENE 2.0 mph 6.0 mph 97 % 0.00 in
12:00 69.6 °F 68.4 °F 30.08 in SE 4.0 mph 6.0 mph 96 % 0.00 in
12:05 69.6 °F 68.2 °F 30.08 in ESE 2.0 mph 7.0 mph 95 % 0.00 in
12:10 69.6 °F 68.2 °F 30.08 in ENE 3.0 mph 7.0 mph 95 % 0.01 in
12:11 69.6 °F 68.2 °F 30.08 in East 1.0 mph 7.0 mph 95 % 0.01 in
12:16 69.6 °F 68.2 °F 30.08 in Calm   7.0 mph 95 % 0.01 in
12:21 69.6 °F 68.2 °F 30.08 in Calm   7.0 mph 95 % 0.01 in
12:26 69.6 °F 68.2 °F 30.07 in ESE 1.0 mph 6.0 mph 95 % 0.02 in
12:31 69.6 °F 68.2 °F 30.07 in East 1.0 mph 6.0 mph 95 % 0.03 in
12:36 69.6 °F 68.2 °F 30.07 in East 3.0 mph 6.0 mph 95 % 0.03 in
12:41 69.6 °F 68.2 °F 30.07 in East 1.0 mph 6.0 mph 95 % 0.04 in
12:47 69.4 °F 68.0 °F 30.06 in Calm   6.0 mph 95 % 0.05 in
12:52 69.3 °F 67.8 °F 30.06 in East 2.0 mph 5.0 mph 95 % 0.06 in
12:57 69.1 °F 67.6 °F 30.06 in East 1.0 mph 5.0 mph 95 % 0.07 in
13:02 69.1 °F 67.6 °F 30.06 in ESE 1.0 mph 5.0 mph 95 % 0.07 in
13:07 69.1 °F 67.6 °F 30.06 in ENE 1.0 mph 4.0 mph 95 % 0.09 in
13:12 69.1 °F 67.8 °F 30.06 in Calm   3.0 mph 96 % 0.09 in
13:17 69.1 °F 67.8 °F 30.05 in Calm   3.0 mph 96 % 0.11 in
13:22 69.1 °F 67.8 °F 30.05 in Calm   3.0 mph 96 % 0.12 in
13:27 68.7 °F 67.3 °F 30.05 in ESE 2.0 mph 3.0 mph 95 % 0.12 in
13:32 68.5 °F 67.3 °F 30.05 in East 1.0 mph 6.0 mph 96 % 0.13 in
13:37 68.4 °F 67.1 °F 30.05 in Calm   6.0 mph 96 % 0.17 in
13:42 68.2 °F 66.9 °F 30.05 in SSE 1.0 mph 6.0 mph 96 % 0.18 in
13:47 68.0 °F 66.7 °F 30.05 in NE 2.0 mph 5.0 mph 96 % 0.24 in
13:52 67.6 °F 66.4 °F 30.04 in Calm   5.0 mph 96 % 0.26 in
13:57 67.6 °F 66.4 °F 30.04 in South 5.0 mph 6.0 mph 96 % 0.30 in
14:02 67.5 °F 66.2 °F 30.04 in East 2.0 mph 11.0 mph 96 % 0.31 in
14:07 67.5 °F 66.2 °F 30.04 in NE 1.0 mph 11.0 mph 96 % 0.32 in
14:12 67.5 °F 66.6 °F 30.04 in NNW 1.0 mph 11.0 mph 97 % 0.33 in
14:17 67.5 °F 66.6 °F 30.04 in NNE 4.0 mph 5.0 mph 97 % 0.33 in
14:22 67.5 °F 66.6 °F 30.03 in Calm   6.0 mph 97 % 0.34 in
14:27 67.6 °F 66.7 °F 30.03 in Calm   6.0 mph 97 % 0.34 in
14:32 67.3 °F 66.0 °F 30.03 in SE 2.0 mph 11.0 mph 96 % 0.33 in
14:37 66.7 °F 65.5 °F 30.03 in ENE 5.0 mph 13.0 mph 96 % 0.30 in
14:42 66.7 °F 65.5 °F 30.03 in Calm   13.0 mph 96 % 0.28 in
14:47 66.7 °F 65.5 °F 30.02 in NNW 3.0 mph 13.0 mph 96 % 0.22 in
14:52 66.7 °F 65.5 °F 30.02 in NE 2.0 mph 8.0 mph 96 % 0.19 in
14:57 66.7 °F 65.5 °F 30.02 in Calm   6.0 mph 96 % 0.16 in
15:02 66.9 °F 65.7 °F 30.02 in SE 1.0 mph 7.0 mph 96 % 0.15 in
15:07 67.1 °F 66.2 °F 30.02 in Calm   7.0 mph 97 % 0.13 in
15:12 67.3 °F 66.4 °F 30.02 in Calm   7.0 mph 97 % 0.12 in
15:17 67.5 °F 66.6 °F 30.01 in WNW 1.0 mph 6.0 mph 97 % 0.10 in
15:22 67.6 °F 66.7 °F 30.01 in Calm   6.0 mph 97 % 0.09 in
15:27 67.6 °F 66.7 °F 30.01 in NE 1.0 mph 6.0 mph 97 % 0.10 in
15:32 67.6 °F 66.7 °F 30.01 in Calm   6.0 mph 97 % 0.09 in
15:37 67.6 °F 66.7 °F 30.01 in East 1.0 mph 6.0 mph 97 % 0.09 in
15:42 67.5 °F 66.6 °F 30.01 in East 3.0 mph 6.0 mph 97 % 0.08 in
15:47 67.5 °F 66.6 °F 30.00 in ENE 3.0 mph 6.0 mph 97 % 0.08 in
15:52 67.5 °F 66.6 °F 30.01 in Calm   8.0 mph 97 % 0.07 in
15:57 67.5 °F 66.6 °F 30.01 in SE 3.0 mph 8.0 mph 97 % 0.06 in
16:02 66.7 °F 65.3 °F 30.02 in SE 7.0 mph 9.0 mph 95 % 0.08 in
16:07 65.8 °F 64.4 °F 30.02 in ENE 7.0 mph 12.0 mph 95 % 0.15 in
16:12 65.1 °F 63.0 °F 30.02 in ENE 5.0 mph 18.0 mph 93 % 0.15 in
16:17 64.8 °F 63.0 °F 30.01 in SE 3.0 mph 18.0 mph 94 % 0.18 in
16:22 64.6 °F 62.8 °F 30.01 in Calm   18.0 mph 94 % 0.22 in
16:27 64.0 °F 62.2 °F 30.00 in East 3.0 mph 7.0 mph 94 % 0.23 in
16:32 64.0 °F 62.2 °F 30.00 in East 1.0 mph 7.0 mph 94 % 0.24 in
16:37 64.4 °F 63.0 °F 30.00 in NNE 2.0 mph 7.0 mph 95 % 0.24 in
16:42 64.9 °F 63.5 °F 30.00 in North 1.0 mph 7.0 mph 95 % 0.24 in
16:47 65.3 °F 64.0 °F 30.00 in Calm   5.0 mph 96 % 0.24 in
16:52 65.7 °F 64.4 °F 30.00 in Calm   3.0 mph 96 % 0.24 in
16:57 66.0 °F 64.8 °F 30.00 in NE 2.0 mph 3.0 mph 96 % 0.24 in
17:02 66.6 °F 65.7 °F 30.00 in Calm   3.0 mph 97 % 0.22 in
17:07 66.7 °F 65.8 °F 30.00 in NE 1.0 mph 5.0 mph 97 % 0.14 in
17:08 66.7 °F 65.8 °F 30.00 in ENE 4.0 mph 5.0 mph 97 % 0.14 in
17:13 66.9 °F 66.0 °F 30.00 in North 2.0 mph 5.0 mph 97 % 0.13 in
17:18 67.1 °F 66.2 °F 30.00 in NNW 2.0 mph 5.0 mph 97 % 0.10 in
17:23 67.3 °F 66.4 °F 30.00 in NNE 1.0 mph 4.0 mph 97 % 0.05 in
17:28 67.1 °F 66.2 °F 30.00 in NNE 1.0 mph 5.0 mph 97 % 0.01 in
17:33 67.1 °F 66.2 °F 30.00 in ENE 2.0 mph 5.0 mph 97 % 0.01 in
17:38 67.1 °F 66.2 °F 30.00 in NE 1.0 mph 5.0 mph 97 % 0.00 in
17:43 67.1 °F 66.2 °F 30.00 in North 1.0 mph 5.0 mph 97 % 0.00 in
17:48 67.1 °F 66.2 °F 30.00 in NNW 1.0 mph 5.0 mph 97 % 0.00 in
17:53 66.9 °F 66.0 °F 30.00 in North 2.0 mph 5.0 mph 97 % 0.00 in
17:58 66.9 °F 66.0 °F 30.00 in North 3.0 mph 5.0 mph 97 % 0.00 in
18:03 66.9 °F 66.0 °F 30.01 in NNW 1.0 mph 5.0 mph 97 % 0.00 in
18:08 66.7 °F 65.8 °F 30.01 in Calm   6.0 mph 97 % 0.00 in
18:13 66.7 °F 65.8 °F 30.01 in Calm   6.0 mph 97 % 0.00 in
18:18 66.7 °F 65.8 °F 30.01 in Calm   6.0 mph 97 % 0.00 in
18:23 66.6 °F 65.7 °F 30.01 in NNE 1.0 mph 4.0 mph 97 % 0.00 in
18:28 66.6 °F 65.7 °F 30.01 in Calm   4.0 mph 97 % 0.00 in
18:33 66.6 °F 65.7 °F 30.01 in Calm   4.0 mph 97 % 0.00 in
18:38 66.4 °F 65.5 °F 30.01 in East 1.0 mph 4.0 mph 97 % 0.00 in
18:43 66.4 °F 65.5 °F 30.02 in Calm   5.0 mph 97 % 0.00 in
18:48 66.4 °F 65.5 °F 30.01 in NE 1.0 mph 5.0 mph 97 % 0.00 in
18:53 66.4 °F 65.5 °F 30.01 in East 2.0 mph 5.0 mph 97 % 0.00 in
18:58 66.4 °F 65.5 °F 30.01 in Calm   3.0 mph 97 % 0.00 in
19:03 66.2 °F 65.3 °F 30.02 in Calm   3.0 mph 97 % 0.01 in
19:08 66.2 °F 65.3 °F 30.02 in Calm   3.0 mph 97 % 0.01 in
19:13 66.2 °F 65.7 °F 30.02 in Calm   3.0 mph 98 % 0.01 in
19:18 66.2 °F 65.7 °F 30.02 in NNE 2.0 mph 3.0 mph 98 % 0.01 in
19:23 66.2 °F 65.7 °F 30.02 in Calm   3.0 mph 98 % 0.01 in
19:28 66.2 °F 65.7 °F 30.02 in North 1.0 mph 3.0 mph 98 % 0.02 in
19:33 66.2 °F 65.7 °F 30.02 in NNW 1.0 mph 3.0 mph 98 % 0.02 in
19:38 66.2 °F 65.7 °F 30.02 in North 2.0 mph 3.0 mph 98 % 0.02 in
19:43 66.0 °F 65.5 °F 30.03 in NNW 3.0 mph 3.0 mph 98 % 0.02 in
19:48 66.0 °F 65.5 °F 30.04 in Calm   4.0 mph 98 % 0.02 in
19:53 66.0 °F 65.5 °F 30.04 in NNW 1.0 mph 4.0 mph 98 % 0.02 in
19:58 66.0 °F 65.5 °F 30.04 in NNW 1.0 mph 5.0 mph 98 % 0.02 in
20:03 65.8 °F 65.3 °F 30.05 in NNW 1.0 mph 5.0 mph 98 % 0.01 in
20:08 65.8 °F 65.3 °F 30.04 in NW 2.0 mph 5.0 mph 98 % 0.01 in
20:13 65.7 °F 65.1 °F 30.04 in NE 2.0 mph 6.0 mph 98 % 0.01 in
20:18 65.5 °F 64.9 °F 30.05 in NNE 2.0 mph 6.0 mph 98 % 0.01 in
20:23 65.5 °F 64.9 °F 30.05 in North 2.0 mph 6.0 mph 98 % 0.02 in
20:28 65.3 °F 64.8 °F 30.05 in Calm   5.0 mph 98 % 0.01 in
20:33 65.1 °F 64.6 °F 30.05 in NE 1.0 mph 5.0 mph 98 % 0.01 in
20:38 65.1 °F 64.6 °F 30.05 in North 1.0 mph 5.0 mph 98 % 0.01 in
20:43 65.1 °F 64.6 °F 30.05 in NE 1.0 mph 4.0 mph 98 % 0.01 in
20:48 64.9 °F 64.4 °F 30.05 in NNE 1.0 mph 3.0 mph 98 % 0.01 in
20:53 64.9 °F 64.4 °F 30.05 in North 3.0 mph 4.0 mph 98 % 0.01 in
20:58 64.9 °F 64.4 °F 30.05 in North 1.0 mph 4.0 mph 98 % 0.01 in
21:03 64.9 °F 64.4 °F 30.05 in Calm   4.0 mph 98 % 0.01 in
21:08 64.9 °F 64.4 °F 30.06 in North 2.0 mph 4.0 mph 98 % 0.01 in
21:13 64.9 °F 64.4 °F 30.06 in Calm   4.0 mph 98 % 0.01 in
21:18 64.9 °F 64.4 °F 30.06 in North 2.0 mph 4.0 mph 98 % 0.00 in
21:23 64.9 °F 64.4 °F 30.06 in NNE 1.0 mph 4.0 mph 98 % 0.00 in
21:28 65.1 °F 64.6 °F 30.06 in NE 6.0 mph 6.0 mph 98 % 0.01 in
21:33 65.1 °F 64.6 °F 30.06 in SE 4.0 mph 6.0 mph 98 % 0.01 in
21:38 65.1 °F 64.6 °F 30.06 in East 4.0 mph 6.0 mph 98 % 0.01 in
21:44 65.1 °F 64.6 °F 30.07 in ENE 3.0 mph 8.0 mph 98 % 0.01 in
21:49 64.8 °F 64.2 °F 30.07 in SE 1.0 mph 8.0 mph 98 % 0.01 in
21:54 64.6 °F 64.0 °F 30.08 in SE 4.0 mph 9.0 mph 98 % 0.01 in
21:59 64.0 °F 63.1 °F 30.08 in ENE 2.0 mph 9.0 mph 97 % 0.01 in
22:04 63.9 °F 63.3 °F 30.08 in Calm   9.0 mph 98 % 0.01 in
22:09 63.9 °F 63.0 °F 30.08 in East 4.0 mph 8.0 mph 97 % 0.01 in
22:14 63.7 °F 63.1 °F 30.08 in East 1.0 mph 8.0 mph 98 % 0.01 in
22:19 63.7 °F 62.8 °F 30.08 in ENE 1.0 mph 5.0 mph 97 % 0.02 in
22:24 63.5 °F 62.6 °F 30.08 in North 1.0 mph 5.0 mph 97 % 0.02 in
22:29 63.3 °F 62.4 °F 30.09 in ESE 2.0 mph 5.0 mph 97 % 0.01 in
22:34 63.3 °F 62.4 °F 30.09 in East 2.0 mph 5.0 mph 97 % 0.01 in
22:39 63.3 °F 62.8 °F 30.09 in Calm   3.0 mph 98 % 0.01 in
22:44 63.5 °F 63.0 °F 30.09 in Calm   2.0 mph 98 % 0.01 in
22:49 63.5 °F 63.0 °F 30.09 in NE 2.0 mph 2.0 mph 98 % 0.01 in
22:54 63.5 °F 63.0 °F 30.09 in Calm   2.0 mph 98 % 0.02 in
22:59 63.7 °F 63.1 °F 30.09 in Calm   2.0 mph 98 % 0.02 in
23:04 63.7 °F 63.1 °F 30.09 in Calm   2.0 mph 98 % 0.02 in
23:09 63.7 °F 63.1 °F 30.10 in Calm   2.0 mph 98 % 0.02 in
23:14 63.7 °F 63.1 °F 30.10 in Calm   2.0 mph 98 % 0.02 in
23:19 63.7 °F 63.1 °F 30.10 in Calm   2.0 mph 98 % 0.01 in
23:24 63.7 °F 63.1 °F 30.10 in Calm   2.0 mph 98 % 0.01 in
23:29 63.7 °F 63.1 °F 30.10 in NE 2.0 mph 2.0 mph 98 % 0.01 in
23:34 63.7 °F 63.1 °F 30.10 in Calm   2.0 mph 98 % 0.02 in
23:39 63.9 °F 63.3 °F 30.09 in Calm   2.0 mph 98 % 0.02 in
23:44 63.9 °F 63.3 °F 30.09 in Calm   2.0 mph 98 % 0.03 in
23:49 63.9 °F 63.3 °F 30.09 in Calm   2.0 mph 98 % 0.08 in
23:54 64.0 °F 63.5 °F 30.09 in ENE 2.0 mph 3.0 mph 98 % 0.08 in
23:59 64.2 °F 63.7 °F 30.09 in Calm   3.0 mph 98 % 0.08 in
Spring, Texas: Villages of Bridgestone
Compliments of Weather Underground - 2.75 mb

Script developed by  Jim McMurry - jmcmurry@mwt.net Adapted for the template by  Wim van der Kuil - Leuven-Template.eu

You find our weather info also at:

UK Metoffice

WeatherCloud

Weather Underground

Mid-South Weather Network

AWEKAS

Citizen Weather Observer Program (CWOP)

HAMweather, WeatherForYou, PWS Weather

Equipment we use:

Weather-station
Davis Vantage Vue

Weather-program
Meteohub

Weather-server
Debian 7.9 x86 (Guest)

Provider
DreamHost

Davis Vantage Vue

Meteohub

Debian 7.9 x86 (Guest)

DreamHost